Вернуться в каталог

STARLINK-2178

АктивенСвязьVLEO
NORAD 47760·PAYLOAD·🇺🇸 United States

Запущен Mar 4, 2021 с Cape Canaveral Space Force Station

Loading…

Ближайшие Пролёты (ближайшие 24 часа)

TLE

СвежийSource: CelesTrak SupGP

Эпоха: Sep 14, 2026, 20:48 UTC

1 47760C 21017AQ  26257.86715278  .00053700  00000+0  17270-2 0  2571
2 47760  53.1597  56.3190 0001208  82.3553  80.9444 15.31672166    15

Отслеживайте STARLINK-2178 в реальном времени с AllMySat

Download on the App Store